Location: Baller�as
(41.9020°N, 0.1554°W)
Time: 12:15:20
(UTC+00:00)

ATLAS 5 CENTAUR R/B - Pass Details

Date: 10 August 2020
Orbit: 267 x 14298 km, 60.7° (Epoch: 21 September)

Event Time Altitude Azimuth Distance (km) Brightness Sun altitude
Rises 21:39:51 0° 339° (NNW) 2,146 6.1 -23.7°
Reaches altitude 10° 21:41:34 10° 0° (N) 1,585 4.8 -23.9°
Maximum altitude 21:44:07 21° 54° (NE) 1,537 4.0 -24.2°
Enters shadow 21:44:45 20° 65° (ENE) 1,690 4.1 -24.3°
